[[{"header":{"parameterUnit":"m.s-1","parameterCategory":1,"la1":30.2991,"la2":30.254,"lo1":-89.0895,"lo2":-89.0444,"dy":0.0017,"dx":0.0017,"nx":28,"ny":28,"refTime":"2025-12-17T09:00:00:Z","depth":0,"parameterNumber":2,"parameterNumberName":"U-component_of_WINDS"},"data":[0,0,0,0,0,0,0,0,0,0,0,0,0,0,0,0,0,0,0,0,0,0,0,0,0,0,0,0,0,0,0,0,0,0,0,0,0,0,0,0,0,0,0,0,0,0,0,0,0,0,0,0,0,0,0,0,0,0,-4.8627,-4.8627,0,-4.8629,-4.8629,-4.8629,-4.8558,-4.8557,-4.8555,-4.8553,-4.8554,-4.8556,-4.8557,0,0,0,0,0,0,0,0,0,0,0,0,0,-4.856,-4.8562,-4.8627,-4.8627,-4.8627,-4.8629,-4.8629,-4.8629,-4.8559,-4.8557,-4.8554,-4.8552,-4.8553,-4.8556,-4.8558,0,0,0,0,0,0,0,0,0,0,0,0,0,-4.8578,-4.8562,-4.8627,-4.8592,-4.8589,-4.8629,-4.8629,-4.8629,-4.8559,-4.8556,-4.8554,-4.8551,-4.8553,-4.8555,-4.8558,-4.8631,0,0,-4.8566,-4.8567,0,0,0,0,0,0,0,0,-4.8577,-4.8581,-4.8597,-4.8595,-4.8591,-4.8591,-4.8606,-4.863,-4.856,-4.8571,-4.8553,-4.855,-4.8568,-4.857,-4.8576,-4.8631,-4.8631,-4.8566,-4.8568,-4.8569,-4.857,0,0,0,0,0,0,0,-4.8576,-4.858,-4.8628,-4.8598,-4.8594,-4.8576,-4.8575,-4.861,-4.8585,-4.8569,-4.8564,-4.8566,-4.8566,-4.8574,-4.8576,-4.8631,-4.8566,-4.8569,-4.857,-4.8571,-4.8745,-4.8748,0,0,0,0,0,0,-4.858,-4.858,-4.8628,-4.8628,-4.8577,-4.8579,-4.8579,-4.8594,-4.8585,-4.8581,-4.8568,-4.8562,-4.8571,-4.8573,-4.8576,-4.8659,-4.8569,-4.8572,-4.8573,-4.8742,-4.8746,-4.8749,0,0,0,0,0,0,-4.8579,-4.8585,-4.8628,-4.8603,-4.8607,-4.8584,-4.8601,-4.8595,-4.8603,-4.8584,-4.8579,-4.858,-4.8568,-4.8572,-4.8618,-4.8658,-4.8573,-4.8575,-4.8739,-4.8743,-4.8747,-4.8827,0,0,0,0,0,0,-4.8577,-4.8585,-4.8613,-4.8604,-4.8608,-4.867,-4.8603,-4.8597,-4.8608,-4.86,-4.8594,-4.859,-4.8567,-4.8614,-4.862,-4.866,-4.8577,-4.8735,-4.8741,-4.8746,-4.8821,-4.8834,-4.8845,0,0,0,0,0,-4.8575,-4.8635,-4.8614,-4.8621,-4.8643,-4.8673,-4.8675,-4.8647,-4.8611,-4.8639,-4.8626,-4.859,-4.8653,-4.8619,-4.8626,-4.8667,-4.8732,-4.8739,-4.8746,-4.8815,-4.8831,-4.8845,0,0,0,0,0,0,-4.8649,-4.8633,-4.861,-4.8669,-4.8673,-4.8661,-4.8694,-4.8665,-4.8679,-4.8671,-4.8635,-4.8634,-4.8686,-4.8681,-4.8644,-4.8737,-4.8686,-4.8695,-4.8737,-4.8752,-4.8764,-4.8762,-4.858,0,0,0,0,0,-4.8672,-4.8699,-4.8683,-4.8737,-4.874,-4.8717,-4.8729,-4.8708,-4.871,-4.8711,-4.8702,-4.8705,-4.8725,-4.8739,-4.8756,-4.8821,-4.8817,-4.8853,-4.8865,-4.8875,-4.8881,-4.8913,-4.8928,-4.8771,-4.8771,-4.8771,0,0,-4.872,-4.8715,-4.8734,-4.8752,-4.8752,-4.8779,-4.8719,-4.875,-4.877,-4.8715,-4.8757,-4.8751,-4.8752,-4.8807,-4.8831,-4.8805,-4.8925,-4.8883,-4.8892,-4.8893,-4.8922,-4.8937,-4.895,-4.8776,-4.8775,-4.8774,0,0,-4.882,-4.8821,-4.8864,-4.8866,-4.8867,-4.8852,-4.8863,-4.8855,-4.8849,-4.8891,-4.885,-4.8873,-4.8909,-4.8911,-4.8917,-4.9019,-4.8986,-4.9027,-4.9088,-4.912,-4.9132,-4.9143,-4.9177,-4.919,-4.9034,-4.9034,-4.9034,0,-4.8879,-4.8919,-4.889,-4.8924,-4.8932,-4.8886,-4.8929,-4.8932,-4.8939,-4.8946,-4.8917,-4.8961,-4.8959,-4.9012,-4.9038,-4.9045,-4.9055,-4.9025,-4.9133,-4.9144,-4.9153,-4.9185,-4.9198,-4.9039,-4.9038,-4.9038,-4.9037,0,-4.899,-4.9018,-4.9054,-4.9061,-4.9074,-4.9113,-4.9089,-4.9106,-4.9084,-4.9071,-4.9114,-4.911,-4.9126,-4.9138,-4.9116,-4.9189,-4.9172,-4.914,-4.9087,-4.9173,-4.9202,-4.9215,-4.9045,-4.9044,-4.9042,-4.9041,0,0,-4.9134,-4.9127,-4.914,-4.9142,-4.9141,-4.9162,-4.9199,-4.9214,-4.9228,-4.9235,-4.9263,-4.9296,-4.9265,-4.9272,-4.9251,-4.9279,-4.9358,-4.9242,-4.9242,-4.9261,-4.9435,-4.9457,-4.9472,-4.9337,-4.934,-4.9341,-4.9433,0,-4.9229,-4.929,-4.9266,-4.9329,-4.9354,-4.9311,-4.9342,-4.9345,-4.9335,-4.9354,-4.9343,-4.9365,-4.9325,-4.9328,-4.9354,-4.9343,-4.9391,-4.9336,-4.9361,-4.9362,-4.9359,-4.9487,-4.9511,-4.9598,-4.9445,-4.9447,-4.9448,0,-4.9347,-4.9359,-4.9425,-4.9419,-4.9428,-4.9457,-4.9469,-4.9489,-4.949,-4.9481,-4.9489,-4.9462,-4.9496,-4.9448,-4.9494,-4.9457,-4.9466,-4.9462,-4.9465,-4.9463,-4.9408,-4.9486,-4.9625,-4.9637,-4.9467,-4.9465,-4.9464,0,-4.9442,-4.9475,-4.9518,-4.9522,-4.9517,-4.9538,-4.9536,-4.9536,-4.9546,-4.9557,-4.9563,-4.9579,-4.9586,-4.9598,-4.9575,-4.9542,-4.9624,-4.9574,-4.9615,-4.9616,-4.9631,-4.963,-4.9771,-4.9644,-4.9644,-4.9643,-4.9643,0,-4.9548,-4.9589,-4.956,-4.9586,-4.9631,-4.9603,-4.9648,-4.9642,-4.9642,-4.9665,-4.9631,-4.9653,-4.9624,-4.9644,-4.9626,-4.9666,-4.9671,-4.9663,-4.9657,-4.9664,-4.9664,-4.9667,-4.9659,-4.9647,-4.9646,-4.9645,-4.9645,0,-4.9659,-4.9642,-4.9685,-4.9678,-4.9677,-4.971,-4.9702,-4.9726,-4.9714,-4.9745,-4.975,-4.9732,-4.9753,-4.9733,-4.9754,-4.9742,-4.9794,-4.9782,-4.9793,-4.9788,-4.983,-4.9825,-4.9974,-4.9991,-4.9857,-4.9858,-4.9859,0,-4.9727,-4.9757,-4.9753,-4.9766,-4.9767,-4.979,-4.98,-4.9775,-4.9788,-4.9793,-4.9815,-4.9834,-4.9848,-4.9885,-4.9872,-4.9888,-4.9873,-4.9925,-4.9875,-4.9881,-4.987,-4.9867,-4.9869,-4.9933,-4.9935,-4.9936,-4.9937,0,-4.9847,-4.9837,-4.9854,-4.9868,-4.9882,-4.9892,-4.99,-4.9913,-4.9887,-4.9903,-4.9925,-4.9935,-4.9957,-4.9975,-4.9987,-4.9985,-4.9956,-4.9954,-4.9963,-4.9969,-4.9973,-4.9968,-4.9817,-4.9949,-4.9948,-4.9947,-4.9947,-4.9946,-4.9935,-4.996,-4.996,-4.9981,-4.9984,-4.9992,-5.0013,-5.0005,-5.0022,-5.0038,-5.0022,-5.0048,-5.005,-5.0063,-5.0065,-5.0084,-5.0063,-5.0078,-5.0081,-5.0084,-5.0089,-4.9973,-5.0087,-5.0087,-5.0086,-5.0086,-5.0086,0,-5.005,-5.0049,-5.0068,-5.008,-5.0096,-5.0069,-5.0076,-5.0091,-5.0114,-5.0119,-5.0133,-5.0158,-5.0176,-5.0166,-5.0182,-5.0199,-5.0186,-5.0204,-5.02,-5.02,-5.0109,-5.0097,-5.0214,-5.0214,-5.0214,-5.0214,-5.0214,-5.0214,-5.0112,-5.0151,-5.0142,-5.0183,-5.0181,-5.0206,-5.0212,-5.0219,-5.0222,-5.0251,-5.0266,-5.0261,-5.0259,-5.0274,-5.0289,-5.0286,-5.0292,-5.0314,-5.0305,-5.022,-5.0207,-5.0195,-5.0183,-5.0316,-5.0316,-5.0394,-5.0395,-5.0396]},{"header":{"parameterUnit":"m.s-1","parameterCategory":1,"la1":30.2991,"la2":30.254,"lo1":-89.0895,"lo2":-89.0444,"dy":0.0017,"dx":0.0017,"nx":28,"ny":28,"refTime":"2025-12-17T09:00:00:Z","depth":0,"parameterNumber":3,"parameterNumberName":"V-component_of_WINDS"},"data":[0,0,0,0,0,0,0,0,0,0,0,0,0,0,0,0,0,0,0,0,0,0,0,0,0,0,0,0,0,0,0,0,0,0,0,0,0,0,0,0,0,0,0,0,0,0,0,0,0,0,0,0,0,0,0,0,0,0,1.5134,1.5134,0,1.515,1.515,1.515,1.5117,1.5116,1.5115,1.5114,1.5129,1.5131,1.5132,0,0,0,0,0,0,0,0,0,0,0,0,0,1.508,1.5081,1.5134,1.5135,1.5135,1.515,1.515,1.515,1.5117,1.5116,1.5114,1.5113,1.5129,1.513,1.5132,0,0,0,0,0,0,0,0,0,0,0,0,0,1.51,1.5081,1.5134,1.512,1.5119,1.515,1.515,1.515,1.5117,1.5116,1.5114,1.5113,1.5128,1.513,1.5132,1.5177,0,0,1.5139,1.514,0,0,0,0,0,0,0,0,1.5099,1.5102,1.5122,1.5121,1.512,1.513,1.5136,1.5159,1.5118,1.5118,1.5114,1.5112,1.5131,1.5132,1.5139,1.5178,1.5179,1.5139,1.514,1.5141,1.5142,0,0,0,0,0,0,0,1.5098,1.5101,1.514,1.5122,1.5121,1.5114,1.5115,1.514,1.5133,1.5118,1.5115,1.5118,1.513,1.5137,1.5139,1.5179,1.5139,1.5141,1.5142,1.5143,1.5261,1.5263,0,0,0,0,0,0,1.5098,1.51,1.514,1.5141,1.5105,1.5116,1.5117,1.5128,1.5133,1.5132,1.5119,1.5116,1.5134,1.5137,1.5139,1.5195,1.5141,1.5143,1.5144,1.5259,1.5261,1.5263,0,0,0,0,0,0,1.5097,1.5102,1.5139,1.512,1.5124,1.5119,1.5131,1.5129,1.5136,1.5134,1.5132,1.5127,1.5133,1.5136,1.5169,1.5195,1.5144,1.5146,1.5257,1.526,1.5262,1.5306,0,0,0,0,0,0,1.5095,1.5101,1.5117,1.5121,1.5125,1.5168,1.5133,1.5131,1.514,1.5136,1.5141,1.514,1.5132,1.5166,1.5171,1.5197,1.5148,1.5254,1.5258,1.5261,1.5302,1.531,1.5317,0,0,0,0,0,1.5093,1.5128,1.5118,1.5123,1.5145,1.5169,1.5172,1.5162,1.5142,1.5159,1.5158,1.514,1.5192,1.517,1.5175,1.5202,1.5253,1.5257,1.5261,1.5299,1.5309,1.5317,0,0,0,0,0,0,1.5127,1.5128,1.5117,1.5154,1.5162,1.5164,1.5184,1.5171,1.5185,1.5181,1.5167,1.5169,1.5205,1.5207,1.5183,1.5249,1.5219,1.5225,1.5246,1.5255,1.5262,1.5261,1.5149,0,0,0,0,0,1.5139,1.5158,1.5158,1.519,1.5195,1.519,1.5199,1.5191,1.5199,1.5202,1.5203,1.5212,1.5231,1.5243,1.5259,1.5303,1.5305,1.5324,1.5331,1.5337,1.5342,1.5369,1.5379,1.5277,1.5277,1.5277,0,0,1.5163,1.5166,1.5178,1.5197,1.5202,1.5224,1.5192,1.5215,1.5232,1.5205,1.5237,1.5239,1.5248,1.5288,1.5305,1.529,1.5371,1.5343,1.5347,1.5349,1.5375,1.5385,1.5393,1.528,1.5279,1.5279,0,0,1.5218,1.5221,1.5251,1.5258,1.5267,1.5263,1.5271,1.5276,1.5276,1.5308,1.529,1.531,1.5341,1.5349,1.5358,1.5422,1.5407,1.5427,1.5465,1.5492,1.55,1.5507,1.5532,1.5541,1.5432,1.5433,1.5433,0,1.5247,1.5278,1.5267,1.5293,1.5303,1.5282,1.5313,1.532,1.5334,1.5342,1.5325,1.5367,1.5371,1.5414,1.5431,1.5437,1.5447,1.5427,1.5499,1.5506,1.5513,1.5537,1.5547,1.5435,1.5435,1.5435,1.5434,0,1.5315,1.5337,1.536,1.5376,1.5388,1.5416,1.5411,1.5426,1.5418,1.5417,1.5452,1.5457,1.5476,1.5486,1.5476,1.5529,1.552,1.5501,1.5472,1.5525,1.5548,1.5557,1.5439,1.5438,1.5437,1.5437,0,0,1.5389,1.5402,1.541,1.5419,1.543,1.5448,1.5476,1.5496,1.551,1.5521,1.5547,1.5576,1.5561,1.557,1.5563,1.5586,1.564,1.5565,1.5565,1.5581,1.5702,1.5717,1.5727,1.5631,1.5632,1.5634,1.5702,0,1.5446,1.5495,1.5489,1.5537,1.5559,1.5542,1.5567,1.5578,1.5579,1.5599,1.56,1.5622,1.5598,1.5605,1.5627,1.5629,1.5665,1.5624,1.5656,1.5657,1.5655,1.5739,1.5753,1.5817,1.571,1.5712,1.5713,0,1.5518,1.5535,1.5586,1.5597,1.5606,1.5629,1.5649,1.5668,1.568,1.568,1.5693,1.5683,1.5714,1.5684,1.5728,1.57,1.5713,1.5717,1.5719,1.5722,1.5689,1.5746,1.5837,1.5848,1.5726,1.5725,1.5724,0,1.5571,1.5605,1.5641,1.5649,1.5662,1.568,1.5686,1.5697,1.5711,1.5729,1.5738,1.5759,1.577,1.5787,1.5784,1.5762,1.583,1.5799,1.5832,1.5833,1.5848,1.5847,1.5944,1.5854,1.5854,1.5853,1.5853,0,1.5636,1.5668,1.5666,1.5688,1.5725,1.5718,1.5755,1.5759,1.5771,1.5795,1.578,1.5804,1.5797,1.582,1.5818,1.5857,1.5861,1.5863,1.5862,1.5865,1.5865,1.5874,1.587,1.5856,1.5855,1.5855,1.5854,0,1.57,1.5699,1.5738,1.5749,1.5753,1.578,1.579,1.5812,1.5813,1.5844,1.5851,1.5853,1.5881,1.5879,1.5909,1.5908,1.5957,1.595,1.5953,1.5952,1.5987,1.5984,1.6094,1.6109,1.6007,1.6008,1.6009,0,1.5742,1.5767,1.5782,1.5798,1.5806,1.5831,1.5846,1.5841,1.5857,1.5876,1.5897,1.5923,1.5944,1.5989,1.5994,1.6018,1.6013,1.605,1.6016,1.602,1.6016,1.6016,1.602,1.6057,1.6058,1.6059,1.6059,0,1.5818,1.5817,1.5839,1.5863,1.5881,1.5899,1.5915,1.5929,1.5927,1.5946,1.5975,1.5991,1.6024,1.6052,1.6076,1.6084,1.6072,1.607,1.608,1.6083,1.6085,1.6087,1.5973,1.6067,1.6067,1.6066,1.6066,1.6065,1.5874,1.5897,1.5912,1.5938,1.5951,1.5967,1.599,1.5996,1.6019,1.6046,1.6042,1.6075,1.6091,1.6123,1.6133,1.616,1.6147,1.616,1.6164,1.6167,1.6173,1.608,1.6164,1.6164,1.6164,1.6164,1.6163,0,1.5951,1.5961,1.5985,1.601,1.6031,1.6019,1.6038,1.6057,1.6087,1.6103,1.6125,1.616,1.6188,1.6196,1.6224,1.6244,1.6239,1.6251,1.625,1.6253,1.6181,1.6172,1.6255,1.6254,1.6254,1.6254,1.6254,1.6254,1.5993,1.6033,1.6035,1.6082,1.6092,1.6125,1.6137,1.6153,1.6167,1.6207,1.623,1.6236,1.625,1.6279,1.6305,1.6307,1.6319,1.6333,1.6334,1.6267,1.6257,1.6249,1.624,1.6336,1.6336,1.6403,1.6404,1.6404]}]]